Location: Dvur Kralove nad Labem
(50.4330°N, 15.8170°E)
Time: 15:03:39
(UTC+02:00)

ISS - Pass Details

Date: 17 May 2018
Orbit: 402 x 407 km, 51.6° (Epoch: 24 May)

Event Time Altitude Azimuth Distance (km) Brightness Sun altitude
Rises 04:12:46 0° 285° (WNW) 2,319 -0.3 -7.6°
Reaches altitude 10° 04:14:51 10° 284° (WNW) 1,458 -1.3 -7.4°
Maximum altitude 04:18:07 80° 197° (SSW) 414 -3.9 -7.0°
Drops below altitude 10° 04:21:22 10° 111° (ESE) 1,455 -0.6 -6.6°
Sets 04:23:27 0° 110° (ESE) 2,313 0.4 -6.4°
